This is the latest recevied weather packets stored in our database for station/object KC5TIL-3. If no packets are shown the sender has not sent any weather packets the latest 10 day(s).
| Time | Temp. | Humidity | Pressure | Rain* | Wind** | Luminosity | Snow |
|---|---|---|---|---|---|---|---|
| 1777966414 | 22.22° C | 58% | 1002.8 hPa | 0 mm | 4.02 m/s, 229° | - | - |
| 1777966117 | 22.22° C | 57% | 1002.8 hPa | 0 mm | 4.47 m/s, 159° | - | - |
| 1777965814 | 22.22° C | 55% | 1002.8 hPa | 0 mm | 4.47 m/s, 148° | - | - |
| 1777965517 | 22.22° C | 54% | 1002.8 hPa | 0 mm | 4.47 m/s, 193° | - | - |
| 1777965219 | 22.22° C | 53% | 1002.8 hPa | 0 mm | 4.47 m/s, 216° | - | - |
| 1777964917 | 22.22° C | 52% | 1002.8 hPa | 0 mm | 4.47 m/s, 208° | - | - |
| 1777964614 | 22.22° C | 51% | 1002.8 hPa | 0 mm | 4.47 m/s, 138° | - | - |
| 1777964316 | 22.22° C | 51% | 1002.8 hPa | 0 mm | 4.02 m/s, 210° | - | - |
| 1777964014 | 22.22° C | 50% | 1002.8 hPa | 0 mm | 3.13 m/s, 195° | - | - |
| 1777963716 | 22.78° C | 49% | 1003.8 hPa | 0 mm | 4.47 m/s, 192° | - | - |
| 1777963117 | 22.78° C | 48% | 1003.8 hPa | 0 mm | 4.92 m/s, 199° | - | - |
| 1777962219 | 22.78° C | 46% | 1003.8 hPa | 0 mm | 3.58 m/s, 217° | - | - |
| 1777961921 | 22.78° C | 46% | 1003.8 hPa | 0 mm | 3.13 m/s, 215° | - | - |
| 1777961316 | 22.78° C | 44% | 1003.8 hPa | 0 mm | 3.58 m/s, 182° | - | - |
| 1777960721 | 23.33° C | 43% | 1003.8 hPa | 0 mm | 4.02 m/s, 191° | - | - |
| 1777960418 | 23.33° C | 43% | 1003.8 hPa | 0 mm | 4.92 m/s, 215° | - | - |
| 1777960121 | 23.33° C | 42% | 1003.8 hPa | 0 mm | 4.02 m/s, 202° | - | - |
| 1777959521 | 23.33° C | 42% | 1003.8 hPa | 0 mm | 4.47 m/s, 223° | - | - |
| 1777958623 | 23.33° C | 40% | 1002.8 hPa | 0 mm | 4.02 m/s, 202° | - | - |
| 1777958027 | 23.89° C | 39% | 1003.8 hPa | 0 mm | 3.58 m/s, 164° | - | - |
| 1777957725 | 23.89° C | 39% | 1003.8 hPa | 0 mm | 4.02 m/s, 207° | - | - |
| 1777957129 | 23.89° C | 38% | 1003.8 hPa | 0 mm | 5.36 m/s, 171° | - | - |
| 1777956828 | 23.89° C | 38% | 1003.8 hPa | 0 mm | 5.36 m/s, 137° | - | - |
| 1777956531 | 23.89° C | 37% | 1003.8 hPa | 0 mm | 4.02 m/s, 196° | - | - |
| 1777956232 | 23.89° C | 37% | 1003.8 hPa | 0 mm | 4.92 m/s, 201° | - | - |
* Rain latest hour (hover to see other rain measurements)
** Current wind speed in m/s (hover to see current wind gust speed)